Location: Tr�vern
(48.0333°N, 4.6000°W)
Time: 03:04:11
(UTC+00:00)

Cosmos 2061 Rocket - Pass Details

Date: 14 July 2020
Orbit: 965 x 1014 km, 82.9° (Epoch: 04 August)

Event Time Altitude Azimuth Distance (km) Brightness Sun altitude
Exits shadow 01:41:57 22° 163° (SSE) 2,042 5.2 -18.2°
Maximum altitude 01:46:05 57° 92° (E) 1,157 4.4 -18.0°
Drops below altitude 10° 01:52:14 10° 16° (NNE) 2,750 7.7 -17.6°
Sets 01:54:47 0° 13° (NNE) 3,696 8.7 -17.4°
